Content
SEND FEEDBACK

Daily
Averages
Monthly
Summary
United States of America

NEW PALTZ, NEW YORK


Home > North America > United States > New York
Elevation: 1243 feet     Latitude: 41 08N     Longitude: 074 33W

WEATHER
 
SELECT A DAY
Number of Records: 175,374;   Date Range: 1/1/95 - 7/27/14
 
SHARE

PRINT THIS DATA

[ ← Previous Day ]
WEATHER ALMANAC - APRIL 17, 2013
[ Next Day → ]
[ °C ]   °F
Weather ElementAverageHighLow
Temperature59 °F66.9 °F (4:56 pm)51.1 °F (11:56 pm)
Dewpoint37.5 °F53.1 °F (3:56 am)28.9 °F (9:56 pm)
Humidity48.4 %84 % (2:56 am)27 % (6:56 pm)
Barometer30.20 in30.28 in (11:56 pm)30.11 in (2:56 am)
Wind Speed7.2 mph15 mph (10:56 am)
Wind Gust23 mph (8:56 am)
Weather ElementAverage
Visibility10 mi
Wind DirectionSSE (168.3 °)

Weather ElementTotal
Precipitation---
Heating Degree Days6 (Base 65)
Growing Degree Days9 (Base 50)
Averaged from 23 records on April 17, 2013
WEATHER CONDITIONS BREAKOUT
WIND DIRECTION BREAKOUT
WEATHER BY HOUR - APRIL 17, 2013
[ °C ]   °F
Local TimeTemperatureDewpointHumidityBarometerVisibilityWind DirectionWind SpeedGust SpeedPrecipitationEventsConditions
1:56 AM57.0 °F51.1 °F81 %30.12 in10.0 miCalmOvercast
2:56 AM55.9 °F51.1 °F84 %30.11 in10.0 miCalmOvercast
3:56 AM60.1 °F53.1 °F78 %30.11 in10.0 miWest (280°)6.9 mphOvercast
4:56 AM57.9 °F53.1 °F84 %30.12 in10.0 miNW (310°)5.8 mph0.00 inRainLight Rain
5:56 AM53.1 °F46.0 °F77 %30.12 in10.0 miNorth (10°)10.4 mph0.00 inLight Drizzle
6:56 AM53.1 °F42.1 °F66 %30.15 in10.0 miNorth (360°)11.5 mph0.00 inMostly Cloudy
7:56 AM53.1 °F41.0 °F64 %30.20 in10.0 miNNW (340°)13.8 mph19.6 mphMostly Cloudy
8:56 AM53.1 °F36.0 °F52 %30.22 in10.0 miNNW (340°)13.8 mph23.0 mphMostly Cloudy
9:56 AM57.9 °F36.0 °F44 %30.22 in10.0 miNorth (350°)10.4 mphScattered Clouds
10:56 AM59.0 °F36.0 °F42 %30.22 in10.0 miNorth (350°)15.0 mph20.7 mphClear
11:56 AM60.1 °F35.1 °F39 %30.21 in10.0 miWNW (290°)8.1 mph17.3 mphClear
12:56 PM62.6 °F35.6 °F37 %30.20 in10.0 miNorth (350°)10.4 mphScattered Clouds
1:56 PM63.0 °F33.1 °F33 %30.19 in10.0 miNE (40°)5.8 mphClear
2:56 PM64.9 °F33.1 °F31 %30.20 in10.0 miNNE (30°)8.1 mph16.1 mphClear
3:56 PM64.9 °F30.9 °F28 %30.19 in10.0 miVariable3.5 mphClear
4:56 PM66.9 °F34.0 °F30 %30.19 in10.0 miNW (320°)8.1 mphClear
5:56 PM66.0 °F32.0 °F28 %30.22 in10.0 miNorth (350°)11.5 mphClear
6:56 PM64.9 °F30.0 °F27 %30.22 in10.0 miNE (50°)5.8 mphClear
7:56 PM62.1 °F30.0 °F30 %30.24 in10.0 miNE (40°)4.6 mphClear
8:56 PM59.0 °F30.0 °F33 %30.26 in10.0 miVariable4.6 mphClear
9:56 PM57.9 °F28.9 °F33 %30.27 in10.0 miNNE (20°)3.5 mphClear
10:56 PM53.1 °F32.0 °F45 %30.27 in10.0 miNE (40°)3.5 mphClear
11:56 PM51.1 °F32.0 °F48 %30.28 in10.0 miCalmClear
Hourly data recorded from KHPN, located miles away from New Paltz, New York







STORIES FROM OUR PARTNERS